Find Starlink 11191

NORAD ID: 60410 Int'l Des: 2024-141 Owner: SPXS Country: US Constellation: starlink operational
LEOCIRCULAR

实时位置

正在加载3D地球...

关于 Starlink 11191

正在加载描述...

即将过境

Passes for default location (London). Set your location on the main map for personalized predictions.

高度历史

Loading altitude history...

两行轨道根数

1 60410U 24141N 26122.42286744 -.00000273 00000-0 26087-5 0 9994
2 60410 53.1593 181.2754 0001198 76.6303 283.4849 15.69701626100182
Epoch: May 2, 2026 • Age: 11 hours

当前状态

高度 360.6 km
速度 7.70 km/s
星下点 28.17°N, 26.81°E
发射日期 Aug 10, 2024
运行时间 1.7 years
类型 internet

技术详情

分类 Payload
质量 960.00 kg
干质量 910.00 kg
总质量 960.00 kg
长度 0.30 m
直径 4.10 m
跨度 29.00 m
形状 Box + pan
制造商 SPXS
平台类型 Starlink V2MD
阶段状态 In Orbit
所有者/国家 SPXS/US

Most Searched